www.pogodaiklimat.ru

Погода и климат >> Архив погоды >> Норвегия >> Myken


ПОГОДА в Myken

  • Прогноз погоды в Myken
  • Монитор погоды в Myken
  • Климат города

АРХИВ ПОГОДЫ в Myken

Время (UTC), дата Ветер
(напр.,м/с)
 
Видим.   Явления Облачность Т
(С)
Тd
(С)
f
(%)
Тe
(С)
Тes
(С)
Комфортность P
(гПа)
Po
(гПа)
Тmin
(С)
Tmax
(С)
R
(мм)
R24
(мм)
S
(см)
05 19.06 ЮЗ 8-11
{11}
н/о н/о +10.5 +7.7 83 +7 +7 1006.9 1004.9
04 19.06 ЮЗ 8-11
{12}
н/о н/о +10.5 +8.1 85 +7 +7 1006.9 1004.9
06 19.06 ЮЗ 9 20 км {ливн. осадки} 9/3 300 м
[Cb calv Ac cuf]
+10.9 +8.0 82 +7 +7 1006.8 1004.8 +9.4 +11.4
07 19.06 ЮЗ 10-14
{14}
н/о н/о +10.6 +8.2 85 +6 +6 1006.5 1004.5
08 19.06 ЮЗ 9-13
{13}
н/о н/о +11.3 +8.4 82 +8 +8 1006.6 1004.6
09 19.06 ЮЗ 10-14
{14}
20 км 9/3 300 м
[Cb calv Ac cuf]
+11.8 +8.1 78 +8 +8 1006.4 1004.4
11 19.06 ЮЗ 8-14
{16}
н/о н/о +11.4 +9.5 88 +8 +8 1005.9 1003.9 1
10 19.06 ЮЗ 9-14
{15}
н/о н/о +10.9 +8.7 86 +7 +7 1006.2 1004.2
12 19.06 ЮЗ 10-14
{16}
5000 м ливневой дождь 9/3 300 м
[Cb calv Ac cuf]
+11.5 +8.7 83 +8 +8 1005.8 1003.8 0.4
13 19.06 ЮЗ 10-15
{16}
н/о н/о +11.9 +8.8 81 +8 +8 1005.4 1003.4
14 19.06 ЮЗ 10-14
{15}
н/о н/о +11.0 +8.2 83 +7 +7 1005.2 1003.2 0.1
15 19.06 ЮЗ 10-13
{15}
15 км в посл. час ливневой дождь 9/3 300 м
[Cb calv Ac cuf]
+11.4 +8.4 82 +7 +8 1004.8 1002.8
17 19.06 ЮЗ 11-14
{15}
н/о н/о +10.7 +8.8 88 +6 +6 1004.2 1002.2 0.1
16 19.06 ЮЗ 11-15
{15}
н/о н/о +11.6 +8.3 80 +8 +8 1004.5 1002.5
18 19.06 ЮЗ 10-14
{16}
10 км слабый ливневой дождь 9/3 300 м
[Cb calv Ac cuf]
+10.7 +8.8 88 +6 +6 1003.8 1001.8 +9.7 +13.0
19 19.06 ЮЗ 9-13
{15}
н/о н/о +10.7 +8.3 85 +7 +7 1003.4 1001.4
20 19.06 ЮЗ 10-14
{15}
н/о н/о +10.5 +8.3 86 +6 +6 1002.9 1000.9
21 19.06 ЮЗ 10-13
{14}
20 км 9/3 300 м
[Cb calv Ac cuf]
+10.0 +7.8 86 +5 +5 1002.7 1000.7
23 19.06 ЮЗ 10-14
{14}
н/о н/о +10.1 +7.2 82 +6 +6 1001.9 999.9
22 19.06 ЮЗ 9-12
{14}
н/о н/о +10.1 +7.9 86 +6 +6 1002.2 1000.2
00 20.06 ЮЗ 9-13
{15}
20 км 9/3 300 м
[Cb calv Ac cuf]
+9.9 +7.0 82 +6 +6 1001.6 999.6
01 20.06 ЮЗ 10-13
{13}
н/о н/о +10.0 +7.3 83 +6 +6 1001.0 999.0
02 20.06 ЮЗ 8-12
{12}
н/о н/о +10.1 +7.4 83 +6 +6 1000.6 998.6
03 20.06 Ю 9-12
{13}
н/о н/о +9.9 +7.5 85 +6 +6 1000.0 998.0
05 20.06 ЮЗ 8-12
{13}
н/о н/о +9.2 +7.3 88 +5 +5 999.4 997.4 0.4
04 20.06 Ю 10-15
{15}
н/о н/о +9.2 +7.5 89 +4 +4 999.6 997.6 1
06 20.06 Ю 6 10 км слабый дождь 10/3 300 м
[Frnb As op]
+9.2 +7.8 91 +5 +6 999.1 997.1 +8.9 +10.9 0.5
07 20.06 ЮЗ 5-8
{10}
н/о н/о +9.7 +7.8 88 +6 +6 999.2 997.2
08 20.06 Ю 6-8
{9}
н/о н/о +9.8 +7.4 85 +6 +6 999.3 997.3 0.1
09 20.06 Ю 5-7
{9}
15 км в посл. час ливневой дождь 9/3 300 м
[Cb calv Ac cuf]
+10.1 +7.2 82 +7 +9 999.6 997.6
11 20.06 Ю 6-9
{10}
н/о н/о +10.5 +7.9 84 +7 +7 999.7 997.7 2
10 20.06 Ю 6-8
{9}
н/о н/о +11.1 +8.2 82 +8 +8 999.6 997.6 0.1
12 20.06 Ю 5-7
{10}
15 км в посл. час ливневой дождь 8/3 300 м
[Cb calv Ac cuf]
+11.4 +8.1 80 +9 +11 999.9 997.9
13 20.06 Ю 9-10
{11}
н/о н/о +9.1 +6.0 81 +5 +5 1000.2 998.2 0.1
14 20.06 ЮВ 5-6
{9}
н/о н/о +10.9 +7.4 79 +8 +8 1000.7 998.7 0.1
15 20.06 Ю 2-3
{6}
20 км 8/1 300 м
[Cb calv Ac cuf Ci fib]
+10.6 +6.9 78 +9 +13 1001.2 999.2
17 20.06 СЗ 3-4
{4}
н/о н/о +11.5 +7.4 76 +10 +10 1002.0 1000.0
16 20.06 ЮВ 1-2
{4}
н/о н/о +10.8 +6.9 77 +11 +11 1001.5 999.5
18 20.06 СЗ 4-5
{11}
20 км 6/1 300 м
[Cb calv Ac cuf]
+10.9 +7.2 78 +9 +9 1002.7 1000.7 +8.2 +12.0
19 20.06 СЗ 4-5
{6}
н/о н/о +10.9 +7.6 80 +9 +9 1003.4 1001.4
20 20.06 СЗ 6-7
{7}
н/о н/о +10.8 +7.3 79 +8 +8 1004.1 1002.1
21 20.06 СЗ 6-7
{7}
30 км 6/1 300 м
[Cu Sc Ac As Ci fib]
+10.4 +7.5 82 +7 +7 1004.6 1002.6
23 20.06 СЗ 3-4
{6}
н/о н/о +9.8 +7.4 85 +8 +8 1005.5 1003.5
22 20.06 СЗ 5-6
{6}
н/о н/о +10.0 +7.6 85 +7 +7 1004.9 1002.9
00 21.06 СЗ 3-4
{7}
30 км 6/1 300 м
[Cb calv Ac As]
+9.7 +7.5 86 +7 +7 1005.9 1003.9
01 21.06 СЗ 2-3
{4}
н/о н/о +9.6 +7.2 85 +8 +8 1006.3 1004.3
02 21.06 СЗ 2-2
{3}
н/о н/о +9.9 +7.5 85 +8 +8 1006.7 1004.7
03 21.06 З 1-2
{2}
н/о н/о +10.1 +7.2 82 +10 +10 1006.9 1004.9
05 21.06 СЗ 3-4
{6}
н/о н/о +10.4 +6.9 79 +8 +8 1007.1 1005.1
04 21.06 ЮЗ 2-3
{3}
н/о н/о +10.0 +8.1 88 +8 +8 1007.0 1005.0
06 21.06 З 3 30 км 9/1 300 м
[Cb calv Ac As]
+10.6 +7.7 82 +9 +10 1007.6 1005.6 +9.6 +11.1
07 21.06 З 4-5
{6}
н/о н/о +10.8 +7.7 81 +8 +8 1007.8 1005.8
08 21.06 З 4-6
{6}
н/о н/о +11.0 +8.4 84 +9 +9 1008.1 1006.1
09 21.06 СЗ 5-6
{7}
20 км 9/1 300 м
[Cb calv Ac As]
+11.5 +9.1 85 +9 +11 1008.2 1006.2
11 21.06 СЗ 3-4
{5}
н/о н/о +11.8 +8.3 79 +10 +10 1008.8 1006.8
10 21.06 СЗ 5-7
{7}
н/о н/о +11.1 +8.5 84 +8 +8 1008.5 1006.5
12 21.06 СЗ 7
{9}
30 км 8/1 300 м
[Cu Sc Ac As]
+11.4 +7.9 79 +8 +9 1009.0 1007.0
13 21.06 СЗ 7-8
{9}
н/о н/о +11.2 +7.9 80 +8 +8 1009.3 1007.3
14 21.06 СЗ 8-9
{10}
н/о н/о +11.3 +8.0 80 +8 +8 1009.4 1007.4
15 21.06 СЗ 9-10
{10}
20 км 8/3 300 м
[Cb calv Ac cuf]
+10.8 +8.2 84 +7 +7 1009.3 1007.3
17 21.06 СЗ 9-11
{12}
н/о н/о +10.8 +7.9 82 +7 +7 1009.3 1007.3
16 21.06 СЗ 9-10
{10}
н/о н/о +11.2 +8.4 83 +7 +7 1009.5 1007.5
18 21.06 СЗ 9-12
{12}
15 км 9/3 300 м
[Cb calv Ac cuf]
+10.1 +8.4 89 +6 +6 1009.4 1007.3 +10.1 +12.0
19 21.06 С 11-13
{13}
н/о н/о +9.8 +7.9 88 +5 +5 1009.2 1007.1 0.8
20 21.06 СЗ 12-14
{14}
н/о н/о +9.6 +7.6 87 +5 +5 1009.2 1007.1
21 21.06 СЗ 13-15
{15}
15 км {ливн. осадки} 9/3 300 м
[Cb calv Ac cuf]
+9.5 +6.9 84 +4 +4 1009.3 1007.2
23 21.06 С 9-11
{12}
н/о н/о +9.3 +6.0 80 +5 +5 1009.6 1007.5 0.1
22 21.06 СЗ 10-13
{16}
н/о н/о +9.0 +7.3 89 +4 +4 1009.6 1007.5
00 22.06 С 9-12
{16}
20 км {ливн. осадки, дождь} 10/10 300 м
[Sc]
+9.2 +5.9 80 +5 +5 1009.5 1007.4
01 22.06 С 7-9
{11}
н/о н/о +9.6 +5.8 77 +6 +6 1009.7 1007.6
02 22.06 С 8-9
{10}
н/о н/о +9.5 +4.9 73 +5 +5 1009.8 1007.7
03 22.06 -9
{9}
н/о н/о +9.3 +4.1 70 1009.9 1007.8
05 22.06 С 7-9
{10}
н/о н/о +8.9 +3.7 70 +5 +5 1009.8 1007.7
04 22.06 С 6-9
{9}
н/о н/о +9.2 +4.4 72 +6 +6 1009.9 1007.8
06 22.06 С 5-6
{11}
н/о н/о +9.3 +3.9 69 +6 +6 1009.8 1007.7 +8.7 +10.0
07 22.06 С 7-9
{9}
н/о н/о +9.5 +4.3 70 +6 +6 1009.7 1007.6
08 22.06 С 6-7
{9}
н/о н/о +9.6 +3.6 66 +6 +6 1009.7 1007.6
09 22.06 С 7-8
{9}
50 км 5/1 300 м
[Cu med, cong Ac As]
+9.7 +2.3 60 +6 +8 1009.6 1007.5
11 22.06 С 5-7
{7}
н/о н/о +9.7 +4.1 68 +7 +7 1009.5 1007.4
10 22.06 С 6-7
{8}
н/о н/о +9.7 +2.8 62 +6 +6 1009.4 1007.3
12 22.06 С 6-7
{9}
50 км 8/0
[Ac As]
+9.9 +3.2 63 +7 +9 1009.6 1007.5
13 22.06 С 6-7
{7}
н/о н/о +10.0 +3.7 65 +7 +7 1009.6 1007.5
14 22.06 С 6-8
{8}
н/о н/о +10.2 +3.9 65 +7 +7 1009.4 1007.3
15 22.06 -8
{8}
60 км 4/0
[Ac As]
+10.1 +3.4 63 1009.2 1007.1
17 22.06 С 7-8
{8}
н/о н/о +10.2 +3.9 65 +7 +7 1008.6 1006.6
16 22.06 С 6 н/о н/о +10.0 +3.7 65 +7 +7 1009.0 1006.9
18 22.06 С 7-8
{8}
50 км 3/0
[Ac As]
+10.3 +4.9 69 +7 +7 1008.3 1006.3 +9.3 +10.5
19 22.06 С 7-9
{9}
н/о н/о +10.3 +5.1 70 +7 +7 1007.9 1005.9
20 22.06 СВ 7-8
{9}
н/о н/о +10.5 +4.9 68 +7 +7 1007.8 1005.8
21 22.06 СВ 7-8
{8}
50 км 1/0
[Ac As]
+10.6 +5.6 71 +7 +7 1007.6 1005.6
23 22.06 СВ 7-8
{8}
н/о н/о +10.5 +5.9 73 +7 +7 1007.1 1005.1
22 22.06 СВ 7-8
{8}
н/о н/о +10.5 +5.1 69 +7 +7 1007.1 1005.1
00 23.06 СВ 6-7
{9}
50 км 1/0
[Ac As]
+10.6 +6.2 74 +7 +7 1007.0 1005.0
01 23.06 СВ 6-7
{7}
н/о н/о +10.7 +6.1 73 +8 +8 1006.9 1004.9
02 23.06 В 5-6
{7}
н/о н/о +11.0 +6.8 75 +8 +8 1006.7 1004.7
03 23.06 В 5-6
{6}
н/о н/о +10.8 +6.0 72 +8 +8 1006.2 1004.2
05 23.06 В 5-5
{5}
н/о н/о +11.6 +5.9 68 +9 +9 1005.8 1003.8
04 23.06 В 5-6
{6}
н/о н/о +11.2 +6.8 74 +9 +9 1006.0 1004.0
06 23.06 СВ 5-6
{7}
н/о н/о +12.1 +6.0 66 +10 +10 1005.6 1003.6 +10.2 +12.1
07 23.06 В 5-6
{6}
н/о н/о +12.3 +6.2 66 +10 +10 1005.4 1003.4
08 23.06 СВ 5-6
{6}
н/о н/о +12.8 +6.6 66 +11 +11 1005.2 1003.2
09 23.06 СВ 6-6
{6}
>70 км 3/1 300 м
[Cu hum Ci fib]
+13.0 +6.8 66 +11 +14 1005.0 1003.0
11 23.06 СВ 6-7
{7}
н/о н/о +12.8 +7.7 71 +10 +10 1004.3 1002.3
10 23.06 СВ 5-6
{7}
н/о н/о +13.5 +8.2 70 +12 +12 1004.8 1002.8
12 23.06 СВ 7-8
{8}
>70 км 4/1 300 м
[Cu hum Ci fib]
+13.1 +8.2 72 +11 +13 1003.9 1001.9
13 23.06 СВ 8-9
{9}
н/о н/о +13.0 +8.9 76 +10 +10 1003.4 1001.4
14 23.06 СВ 8-9
{9}
н/о н/о +13.0 +8.5 74 +10 +10 1002.8 1000.8
15 23.06 СВ 9-10
{10}
>70 км 5/0
[Ac As Ci fib]
+13.0 +8.5 74 +10 +10 1002.3 1000.3
17 23.06 СВ 10-12
{12}
н/о н/о +13.1 +8.2 72 +10 +10 1000.6 998.6
16 23.06 СВ 9-11
{11}
н/о н/о +13.0 +7.9 71 +10 +10 1001.5 999.5
18 23.06 СВ 10-11
{12}
>70 км 8/0
[Ac As Ci fib]
+13.1 +8.4 73 +10 +10 1000.0 998.0 +11.9 +13.5
19 23.06 СВ 10-11
{12}
н/о н/о +13.0 +8.9 76 +10 +10 999.4 997.4
20 23.06 СВ 9-10
{11}
н/о н/о +13.0 +8.9 76 +10 +10 998.7 996.7
21 23.06 СВ 8-10
{11}
н/о н/о +12.8 +9.3 79 +10 +10 998.0 996.0
23 23.06 СВ 6-7
{9}
н/о н/о +13.0 +9.8 81 +11 +11 997.0 995.0
22 23.06 СВ 8-9
{9}
н/о н/о +13.0 +9.1 77 +10 +10 997.5 995.5
00 24.06 В 4-5
{12}
н/о н/о +12.8 +10.2 84 +11 +11 996.7 994.7
01 24.06 ЮВ 5-5
{6}
н/о н/о +13.6 +9.3 75 +12 +12 996.4 994.4
02 24.06 Ю 4-6
{7}
н/о н/о +13.9 +9.4 74 +12 +12 996.3 994.3
03 24.06 Ю 4-5
{6}
н/о н/о +12.8 +10.4 85 +11 +11 996.2 994.2 0.5
05 24.06 В 6-7
{7}
н/о н/о +12.3 +9.9 85 +10 +10 995.2 993.2 0.1
04 24.06 В 3-3
{4}
н/о н/о +12.5 +10.9 90 +11 +11 995.7 993.7 0.1
06 24.06 В 11-13
{13}
н/о н/о +12.8 +9.3 79 +9 +9 994.8 992.8 +12.3 +14.2 0.1
07 24.06 ЮВ 8-9
{12}
н/о н/о +12.1 +10.2 88 +9 +9 994.8 992.8 0.8
08 24.06 ЮВ 6-7
{8}
н/о н/о +12.0 +10.1 88 +9 +9 994.9 992.9 0.6
09 24.06 Ю 5-7
{8}
10 км слабый дождь 10/3 300 м
[Frnb As op]
+11.4 +10.6 95 +9 +9 995.1 993.1 1
11 24.06 Ю 6-8
{8}
н/о н/о +11.4 +10.8 96 +8 +8 994.9 992.9 1
10 24.06 Ю 5-7
{8}
н/о н/о +11.2 +10.6 96 +8 +8 995.0 993.0 2
12 24.06 Ю 7-8
{12}
10 км слабый дождь 10/3 300 м
[Frnb As op]
+11.7 +10.9 95 +8 +9 994.8 992.8 0.8
13 24.06 Ю 8-11
{11}
н/о н/о +11.1 +10.2 94 +7 +7 995.0 993.0 0.1
14 24.06 ЮЗ 7-12
{12}
н/о н/о +10.9 +9.7 92 +7 +7 995.2 993.2
15 24.06 ЮЗ 7-11
{13}
15 км в посл. час дождь 10/10 300 м
[Sc]
+11.1 +10.0 93 +8 +8 995.2 993.2
17 24.06 ЮЗ 6-9
{11}
н/о н/о +10.7 +8.5 86 +7 +7 995.5 993.5
16 24.06 ЮЗ 7-10
{12}
н/о н/о +10.6 +9.2 91 +7 +7 995.3 993.3
18 24.06 ЮЗ 6-8
{13}
15 км {дождь} 10/10 300 м
[St]
+10.5 +8.9 90 +7 +7 995.5 993.5 +10.5 +12.8
19 24.06 ЮЗ 5-8
{8}
н/о н/о +11.0 +8.2 83 +8 +8 995.4 993.4
20 24.06 Ю 4-6
{7}
н/о н/о +11.1 +8.9 86 +9 +9 995.5 993.5
21 24.06 Ю 5-6
{6}
15 км 10/10 300 м
[St]
+10.7 +8.5 86 +8 +8 995.3 993.3
23 24.06 ЮЗ 3-4
{5}
н/о н/о +10.6 +9.2 91 +8 +8 995.0 993.0
22 24.06 Ю 4-5
{6}
н/о н/о +10.7 +9.1 90 +8 +8 995.2 993.2
00 25.06 Ю 3-3
{8}
20 км 10/10 300 м
[St]
+10.5 +9.1 91 +8 +8 994.8 992.8
01 25.06 ЮЗ 2-3
{3}
н/о н/о +10.3 +8.9 91 +9 +9 994.6 992.6
02 25.06 ЮЗ 2-2
{3}
н/о н/о +10.4 +8.8 90 +9 +9 994.3 992.3
03 25.06 ЮЗ 1-1
{2}
н/о н/о +10.5 +8.9 90 +10 +10 993.7 991.7
05 25.06 СЗ 1-1
{2}
н/о н/о +10.3 +8.6 89 +10 +10 993.2 991.2 0.5
04 25.06 З 1-1
{1}
н/о н/о +10.5 +8.9 90 +10 +10 993.5 991.5 0.2
06 25.06 В 3 10 км слабый дождь 10/3 300 м
[Frnb As op]
+10.2 +8.8 91 +8 +8 993.1 991.1 +10.1 +11.1 0.4
07 25.06 СВ 2-3
{3}
н/о н/о +10.7 +9.3 91 +9 +9 992.8 990.8 0.2
08 25.06 СВ 4-5
{5}
н/о н/о +10.2 +8.5 89 +7 +7 992.6 990.6 0.2
09 25.06 С 6-7
{7}
н/о н/о +10.3 +8.2 87 +7 +7 992.4 990.4 0.1
11 25.06 С 6-8
{8}
н/о н/о +10.7 +9.1 90 +7 +7 992.1 990.1
10 25.06 С 6-7
{7}
н/о н/о +10.5 +8.8 89 +7 +7 992.3 990.3
12 25.06 С 6-7
{8}
15 км в посл. час дождь 10/10 300 м
[Sc]
+11.0 +9.1 88 +8 +8 992.0 990.0
13 25.06 С 6-7
{7}
н/о н/о +11.4 +9.5 88 +8 +8 991.5 989.5
14 25.06 С 8-9
{9}
н/о н/о +11.8 +10.1 89 +8 +8 991.3 989.3
15 25.06 С 9-10
{10}
20 км 10/10 300 м
[St]
+11.8 +10.4 91 +8 +8 991.1 989.1
17 25.06 С 11-12
{13}
н/о н/о +11.5 +10.4 93 +7 +7 990.8 988.8
16 25.06 С 10-12
{12}
н/о н/о +11.7 +10.5 92 +8 +8 990.9 988.9
18 25.06 С 12-13
{14}
15 км слабый дождь 10/3 300 м
[Frnb As op]
+11.3 +10.2 93 +7 +7 990.9 988.9 +10.1 +11.9
19 25.06 С 11-13
{14}
н/о н/о +11.1 +10.0 93 +7 +7 990.8 988.8
20 25.06 С 12-14
{14}
н/о н/о +11.0 +9.8 92 +6 +6 990.7 988.7
21 25.06 С 13-15
{15}
15 км {дождь} 10/10 300 м
[Sc]
+10.7 +9.3 91 +6 +6 990.5 988.5
23 25.06 -14
{15}
н/о н/о +10.5 +8.9 90 990.4 988.4
22 25.06 -15
{15}
н/о н/о +10.6 +9.2 91 990.5 988.5
00 26.06 С 11-12
{15}
15 км 10/10 300 м
[St]
+10.6 +9.0 90 +6 +6 990.6 988.6
01 26.06 -12
{13}
н/о н/о +10.5 +8.9 90 990.5 988.5
02 26.06 С 8-11
{12}
н/о н/о +10.4 +8.8 90 +6 +6 990.6 988.6

 

Местоположение метеостанции Myken (Норвегия): широта 66.77 долгота 12.48 высота над уровнем моря 17 м.

В архиве по умолчанию представлена погода в Myken за последнюю неделю. Архивные данные за месяц целиком и за предыдущие месяцы, начиная с января 2011 года, Вы можете получить, выбрав интересующий диапазон дат из раскрывающегося списка и нажав кнопку "Ввод!".

Внимание! Время в таблицах - всемирное. Для получения местного времени необходимо прибавить поправку, которая в Myken равна 1 ч.

Смотрите также архив погоды в соседних городах и на ближайших метеорологических станциях:

Погода в Solvaer III (Норвегия) (45 км)
Погода в Reipa (Норвегия) (53 км)
Погода в Rost Flyplass (Норвегия) (85 км)
Погода в Skamdal (Норвегия) (86 км)
Погода в Seljelia (Норвегия) (86 км)
Погода в Sandnessjoen Lufthavn (Норвегия) (90 км)
Погода в Mo i Rana Lufthavn (Норвегия) (93 км)
Погода в Helligvaer II (Норвегия) (93 км)
Погода в Vaeroy Heliport (Норвегия) (98 км)
Погода в Bodo VI (Норвегия) (99 км)

Пояснения к столбцам:

Ветер - указаны скорость ветра в м/с - средняя за 10 мин, порывы в срок и между сроками (в фигурных скобках) и направление, откуда дует ветер: С - северный, СВ - северо-восточный, В - восточный, ЮВ - юго-восточный, Ю - южный, ЮЗ - юго-западный, З - западный, СЗ - северо-западный.
Видимость - горизонтальная дальность видимости в метрах или километрах. При видимости от 1 до 10 км при отсутствии осадков обычно наблюдается дымка, при ухудшении видимости до 1 км и менее - туман. В сухую погоду видимость может ухудшаться дымом, пылью или мглою.
Явления - указаны атмосферные явления, наблюдавшиеся в срок или в последний час перед сроком; фигурными скобками обозначены явления, наблюдавшиеся между сроками (за 1-3 часа до срока); квадратными скобками обозначены град или гололедные отложения с указанием их диаметра в мм.
Облачность - указаны через наклонную черту общая и нижняя облачность в баллах и высота нижней границы облаков в метрах; квадратными скобками обозначены формы облаков: Ci - перистые, Cs - перисто-слоистые, Cc - перисто-кучевые, Ac - высококучевые, As - высокослоистые, Sc - слоисто-кучевые, Ns - слоисто-дождевые, Cu - кучевые, Cb - кучево-дождевые. Подробнее классификацию облаков см. в Атласе облаков (PDF).
T - Температура воздуха - температура, измеренная на высоте 2 м над землей.
Td - Температура точки росы - температура, при понижении до которой содержащийся в воздухе водяной пар достигнет насыщения.
f - Относительная влажность воздуха - влажноcть воздуха, измеренная на высоте 2 м над землей.
Te - Эффективная температура - температура, которую ощущает одетый по сезону человек в тени. Характеристика душности погоды. При расчете учитывается влияние влажности воздуха и скорости ветра на теплоощущения человека.
Tes - Эффективная температура на солнце - температура, которую ощущает человек, с поправкой на солнечный нагрев. Характеристика знойности погоды. Зависит от высоты солнца над горизонтом, облачности и скорости ветра. Ночью, в пасмурную погоду, а также при ветре 12 м/с и более поправка равна нулю.
P - Атмосферное давление - приведенное к уровню моря атмосферное давление.
Po - Атмосферное давление - измеренное на уровне метеостанции атмосферное давление.
Tmin - Минимальная температура - минимум температуры воздуха на высоте 2 м над землей.
Tmax - Максимальная температура - максимум температуры воздуха на высоте 2 м над землей.
R - Количество осадков - Количество выпавших осадков за период времени, мм. При наведении курсора мыши на число - период времени, за который выпало указанное количество осадков.
R24 - Количество осадков - Количество выпавших осадков за 24 часа, мм.
S - Снежный покров - Высота снежного покрова, см. При наведении курсора мыши на число - состояние снежного покрова и степень покрытия местности в баллах.